Location: Newark
(52.2090°N, 4.1550°W)
Time: 12:30:10
(UTC+00:00)

Explorer 7 - Pass Details

Date: 27 September 2019
Orbit: 485 x 680 km, 50.3° (Epoch: 17 October)

Event Time Altitude Azimuth Distance (km) Brightness Sun altitude
Rises 19:46:21 0° 204° (SSW) 2,701 10.4 -16.3°
Reaches altitude 10° 19:49:02 10° 186° (S) 1,850 9.4 -16.7°
Enters shadow 19:50:36 16° 166° (SSE) 1,512 8.7 -16.9°
Maximum altitude 19:52:01 19° 141° (SE) 1,411 - -17.1°
Drops below altitude 10° 19:55:08 10° 96° (E) 1,947 - -17.5°
Sets 19:58:02 0° 79° (E) 2,896 - -17.9°
